When you browse on this site, cookies collect data to enhance your experience and personalize the content and advertising you see.
Visit our Privacy Policy to learn more. By continuing to use the site, you agree to this use of cookies and data.
  • In Sweden
  • List of Countries
  • For 7 days
  • Water Temperature
  • Satellite Maps
  • Weather Map
  • Weather Widgets
  • user-avatar
    Login

    Hourly Weather Shilovo

    Today, 23 March, Saturday

    Time Temperature Precipitation Wind Pressure Humidity
    00:00 -1°C° 0 mm 3 mps 761 mmHg 84%
    01:00 -2°C° 0 mm 3 mps 761 mmHg 87%
    02:00 -2°C° 0 mm 3 mps 762 mmHg 89%
    03:00 -2°C° 0 mm 2 mps 762 mmHg 90%
    04:00 -3°C° 0 mm 2 mps 762 mmHg 92%
    05:00 -3°C° 0 mm 2 mps 762 mmHg 94%
    06:00 0°C° 0 mm 1 mps 762 mmHg 89%
    07:00 +1°C° 0 mm 1 mps 762 mmHg 85%
    08:00 +1°C° 0 mm 1 mps 762 mmHg 81%
    09:00 +3°C° 0 mm 1 mps 762 mmHg 74%
    10:00 +3°C° 0 mm 2 mps 761 mmHg 67%
    11:00 +5°C° 0 mm 2 mps 761 mmHg 60%
    12:00 +4°C° 0 mm 3 mps 760 mmHg 57%
    13:00 +5°C° 0 mm 3 mps 759 mmHg 54%
    14:00 +7°C° 0 mm 3 mps 758 mmHg 51%
    15:00 +7°C° 0 mm 3 mps 758 mmHg 53%
    16:00 +5°C° 0 mm 3 mps 757 mmHg 54%
    17:00 +5°C° 0 mm 3 mps 756 mmHg 55%
    18:00 +4°C° 0 mm 4 mps 756 mmHg 56%
    19:00 +4°C° 0 mm 4 mps 755 mmHg 57%
    20:00 +4°C° 0 mm 4 mps 755 mmHg 58%
    21:00 +4°C° 0.4 mm 4 mps 754 mmHg 65%
    22:00 +3°C° 0.4 mm 4 mps 753 mmHg 72%
    23:00 +3°C° 0.4 mm 4 mps 753 mmHg 79%

    Tomorrow, 24 March, Sunday

    Time Temperature Precipitation Wind Pressure Humidity
    00:00 +3°C° 0 mm 3 mps 753 mmHg 84%
    01:00 +2°C° 0 mm 3 mps 752 mmHg 88%
    02:00 +2°C° 0 mm 3 mps 752 mmHg 93%
    03:00 +1°C° 0 mm 3 mps 752 mmHg 92%
    04:00 +1°C° 0 mm 3 mps 752 mmHg 91%
    05:00 -1°C° 0 mm 4 mps 751 mmHg 90%
    06:00 0°C° 0 mm 4 mps 752 mmHg 84%
    07:00 0°C° 0 mm 4 mps 752 mmHg 78%
    08:00 +1°C° 0 mm 5 mps 752 mmHg 72%
    09:00 +1°C° 0 mm 5 mps 752 mmHg 66%
    10:00 +2°C° 0 mm 5 mps 752 mmHg 59%
    11:00 +3°C° 0 mm 5 mps 752 mmHg 52%
    12:00 +3°C° 0 mm 6 mps 752 mmHg 50%
    13:00 +3°C° 0 mm 6 mps 751 mmHg 47%
    14:00 +3°C° 0 mm 6 mps 751 mmHg 45%
    15:00 +3°C° 0 mm 5 mps 751 mmHg 47%
    16:00 +4°C° 0 mm 4 mps 751 mmHg 48%
    17:00 +4°C° 0 mm 3 mps 751 mmHg 50%
    18:00 +3°C° 0 mm 3 mps 751 mmHg 54%
    19:00 +2°C° 0 mm 3 mps 751 mmHg 58%
    20:00 +1°C° 0 mm 3 mps 751 mmHg 62%
    21:00 +1°C° 0 mm 3 mps 751 mmHg 64%
    22:00 -1°C° 0 mm 4 mps 751 mmHg 66%
    23:00 -1°C° 0 mm 4 mps 750 mmHg 68%

    Day after tomorrow, 25 March, Monday

    Time Temperature Precipitation Wind Pressure Humidity
    00:00 -1°C° 0 mm 4 mps 750 mmHg 70%
    01:00 -2°C° 0 mm 4 mps 750 mmHg 73%
    02:00 -1°C° 0 mm 3 mps 749 mmHg 76%
    03:00 -1°C° 0 mm 3 mps 749 mmHg 76%
    04:00 -1°C° 0 mm 3 mps 749 mmHg 76%
    05:00 -1°C° 0 mm 3 mps 749 mmHg 76%
    06:00 -1°C° 0 mm 3 mps 749 mmHg 75%
    07:00 0°C° 0 mm 3 mps 749 mmHg 74%
    08:00 0°C° 0 mm 3 mps 749 mmHg 73%
    09:00 +2°C° 0 mm 3 mps 748 mmHg 70%
    10:00 +3°C° 0 mm 3 mps 748 mmHg 67%
    11:00 +4°C° 0 mm 3 mps 748 mmHg 63%
    12:00 +4°C° 0.2 mm 3 mps 748 mmHg 64%
    13:00 +4°C° 0.2 mm 3 mps 748 mmHg 64%
    14:00 +4°C° 0.2 mm 3 mps 748 mmHg 64%
    15:00 +4°C° 0.1 mm 3 mps 747 mmHg 69%
    16:00 +3°C° 0.1 mm 3 mps 747 mmHg 73%
    17:00 +4°C° 0.1 mm 2 mps 747 mmHg 77%
    18:00 +3°C° 0 mm 2 mps 747 mmHg 82%
    19:00 +2°C° 0 mm 2 mps 747 mmHg 87%
    20:00 +2°C° 0 mm 1 mps 748 mmHg 92%
    21:00 +2°C° 0.1 mm 1 mps 748 mmHg 93%
    22:00 +1°C° 0.1 mm 1 mps 748 mmHg 93%
    23:00 +1°C° 0.1 mm 1 mps 748 mmHg 93%

    26 March, Tuesday

    Time Temperature Precipitation Wind Pressure Humidity
    00:00 +1°C° 0.1 mm 1 mps 747 mmHg 94%
    01:00 -1°C° 0.1 mm 2 mps 747 mmHg 94%
    02:00 -1°C° 0.1 mm 2 mps 747 mmHg 95%
    03:00 -1°C° 0.5 mm 2 mps 748 mmHg 93%
    04:00 -1°C° 0.5 mm 3 mps 748 mmHg 91%
    05:00 -2°C° 0.5 mm 4 mps 748 mmHg 89%
    06:00 -2°C° 0.2 mm 4 mps 748 mmHg 87%
    07:00 -2°C° 0.2 mm 4 mps 748 mmHg 85%
    08:00 -2°C° 0.2 mm 4 mps 749 mmHg 83%
    09:00 -1°C° 0 mm 4 mps 749 mmHg 76%
    10:00 -1°C° 0 mm 4 mps 749 mmHg 70%
    11:00 +1°C° 0 mm 3 mps 749 mmHg 63%
    12:00 +1°C° 0.1 mm 3 mps 749 mmHg 59%
    13:00 +2°C° 0.1 mm 3 mps 749 mmHg 56%
    14:00 +3°C° 0.1 mm 2 mps 749 mmHg 52%
    15:00 +3°C° 0.2 mm 2 mps 749 mmHg 55%
    16:00 +3°C° 0.2 mm 1 mps 750 mmHg 59%
    17:00 +3°C° 0.2 mm 1 mps 750 mmHg 62%
    18:00 +2°C° 0 mm 1 mps 750 mmHg 67%
    19:00 +1°C° 0 mm 1 mps 750 mmHg 71%
    20:00 0°C° 0 mm 1 mps 751 mmHg 76%
    21:00 -1°C° 0 mm 1 mps 751 mmHg 80%
    22:00 -3°C° 0 mm 2 mps 751 mmHg 83%
    23:00 -4°C° 0 mm 2 mps 752 mmHg 86%

    27 March, Wednesday

    Time Temperature Precipitation Wind Pressure Humidity
    00:00 -4°C° 0 mm 2 mps 752 mmHg 88%
    01:00 -4°C° 0 mm 2 mps 752 mmHg 89%
    02:00 -5°C° 0 mm 2 mps 753 mmHg 90%
    03:00 -5°C° 0 mm 2 mps 753 mmHg 90%
    04:00 -5°C° 0 mm 2 mps 753 mmHg 90%
    05:00 -5°C° 0 mm 3 mps 754 mmHg 89%
    06:00 -5°C° 0 mm 3 mps 754 mmHg 84%
    07:00 -5°C° 0 mm 4 mps 755 mmHg 78%
    08:00 -4°C° 0 mm 4 mps 755 mmHg 73%
    09:00 -3°C° 0 mm 4 mps 755 mmHg 65%
    10:00 -2°C° 0 mm 4 mps 756 mmHg 56%
    11:00 -2°C° 0 mm 4 mps 756 mmHg 48%
    12:00 -1°C° 0 mm 4 mps 756 mmHg 46%
    13:00 -1°C° 0 mm 4 mps 757 mmHg 43%
    14:00 0°C° 0 mm 4 mps 757 mmHg 41%
    15:00 0°C° 0 mm 4 mps 757 mmHg 43%
    16:00 0°C° 0 mm 3 mps 758 mmHg 45%
    17:00 0°C° 0 mm 3 mps 758 mmHg 47%
    18:00 -1°C° 0 mm 3 mps 759 mmHg 54%
    19:00 -2°C° 0 mm 2 mps 759 mmHg 60%
    20:00 -4°C° 0 mm 2 mps 760 mmHg 66%
    21:00 -4°C° 0 mm 2 mps 760 mmHg 68%
    22:00 -5°C° 0 mm 2 mps 761 mmHg 70%
    23:00 -5°C° 0 mm 2 mps 761 mmHg 72%

    28 March, Thursday

    Time Temperature Precipitation Wind Pressure Humidity
    00:00 -3°C° 0 mm 1 mps 761 mmHg 72%
    01:00 -3°C° 0 mm 1 mps 761 mmHg 72%
    02:00 -3°C° 0 mm 1 mps 762 mmHg 72%
    03:00 -3°C° 0 mm 1 mps 762 mmHg 70%
    04:00 -3°C° 0 mm 1 mps 762 mmHg 69%
    05:00 -5°C° 0 mm 2 mps 762 mmHg 67%
    06:00 -4°C° 0 mm 2 mps 762 mmHg 65%
    07:00 -3°C° 0 mm 2 mps 762 mmHg 62%
    08:00 -2°C° 0 mm 3 mps 762 mmHg 60%
    09:00 -1°C° 0 mm 3 mps 762 mmHg 62%
    10:00 +1°C° 0 mm 3 mps 762 mmHg 63%
    11:00 +2°C° 0 mm 3 mps 761 mmHg 65%
    12:00 +3°C° 0 mm 3 mps 761 mmHg 65%
    13:00 +3°C° 0 mm 3 mps 761 mmHg 65%
    14:00 +4°C° 0 mm 4 mps 761 mmHg 64%
    15:00 +4°C° 0 mm 3 mps 761 mmHg 67%
    16:00 +4°C° 0 mm 3 mps 761 mmHg 69%
    17:00 +5°C° 0 mm 2 mps 761 mmHg 72%
    18:00 +3°C° 0 mm 2 mps 761 mmHg 77%
    19:00 +2°C° 0 mm 2 mps 761 mmHg 82%
    20:00 +1°C° 0 mm 2 mps 761 mmHg 87%
    21:00 0°C° 0 mm 3 mps 761 mmHg 88%
    22:00 0°C° 0 mm 3 mps 760 mmHg 89%
    23:00 0°C° 0 mm 3 mps 760 mmHg 90%
    Show more